Joliet, IL

12:10 PM CST on February 22, 2017 (GMT -0600)
Joliet Regional

Weather History for KJOT - December, 2012

Change the Weather History Date:

Monday, December 3, 2012

  Actual Average (KARR) Record (KARR)
Temperature  
Mean Temperature 59 °F -  
Max Temperature 70 °F 39 °F 70 °F (2012)
Min Temperature 48 °F 25 °F -3 °F (2006)
Degree Days  
Heating Degree Days 6    
Growing Degree Days 9 (Base 50)    
Moisture  
Dew Point 56 °F    
Average Humidity 84    
Maximum Humidity 100    
Minimum Humidity 63    
Precipitation  
Precipitation 0.00 in - - ()
Sea Level Pressure  
Sea Level Pressure 29.89 in    
Wind  
Wind Speed 8 mph (South)    
Max Wind Speed 23 mph    
Max Gust Speed 34 mph    
Visibility 6 miles    
Events Fog , Rain    
Averages and records for this station are not official NWS values.
T = Trace of Precipitation, MM = Missing Value Source: NWS Daily Summary

Daily Weather History Graph

Daily Weather History Graph

Search for Another Location

Airport or City:

Trip Planner

Search our weather history database for the weather conditions in past years. The results will help you decide how hot, cold, wet, or windy it might be!

Date:

Astronomy

Dec. 03, 2012 Rise Set
Actual Time 7:02 AM CST 4:23 PM CST
Civil Twilight 6:31 AM CST 4:54 PM CST
Nautical Twilight 5:56 AM CST 5:28 PM CST
Astronomical Twilight 5:23 AM CST 6:02 PM CST
Moon 9:11 PM CST (12/3) 10:23 AM CST (12/3)
Length of Visible Light 10h 22m
Length of Day
9h 20m
Waning Gibbous, 78% of the Moon is Illuminated
Dec 3
Waning Gibbous
Dec 6
Last Quarter
Dec 13
New
Dec 19
First Quarter
Dec 28
Full

Hourly Weather History & Observations

Time (CST) Temp. Dew Point Humidity Pressure Visibility Wind Dir Wind Speed Gust Speed Precip Events Conditions
12:15 AM 48.4 °F 48.2 °F 99% 30.03 in 0.2 mi Calm Calm - N/A Fog Fog
12:35 AM 48.2 °F 48.2 °F 100% 30.02 in 0.2 mi ESE 3.5 mph - N/A Fog Fog
12:55 AM 48.2 °F 48.2 °F 100% 30.02 in 0.2 mi Calm Calm - N/A Fog Fog
1:15 AM 49.1 °F 49.1 °F 100% 30.02 in 0.2 mi Calm Calm - N/A Fog Fog
1:35 AM 49.6 °F 49.5 °F 99% 30.02 in 1.0 mi Calm Calm - N/A   Overcast
1:55 AM 50.5 °F 50.4 °F 99% 30.02 in 0.2 mi Calm Calm - N/A Fog Fog
2:15 AM 51.8 °F 51.8 °F 100% 30.02 in 0.2 mi Calm Calm - N/A Fog Fog
2:35 AM 53.1 °F 53.1 °F 100% 30.01 in 0.2 mi SE 3.5 mph - N/A Fog Fog
2:55 AM 54.1 °F 54.1 °F 100% 30.00 in 0.2 mi SE 4.6 mph - N/A Fog Fog
3:15 AM 54.5 °F 54.5 °F 100% 30.00 in 0.2 mi SE 5.8 mph - N/A Fog Fog
3:35 AM 54.5 °F 54.5 °F 100% 29.99 in 0.2 mi SE 4.6 mph - N/A Fog Fog
3:55 AM 55.0 °F 54.9 °F 99% 29.98 in 0.2 mi SE 4.6 mph - N/A Fog Fog
4:15 AM 54.9 °F 54.7 °F 99% 29.97 in 0.2 mi ESE 5.8 mph - N/A Fog Fog
4:35 AM 54.9 °F 54.7 °F 99% 29.97 in 0.2 mi SE 6.9 mph - N/A Fog Fog
4:55 AM 55.4 °F 55.2 °F 99% 29.96 in 0.2 mi SSE 4.6 mph - N/A Fog Fog
5:15 AM 56.3 °F 55.9 °F 99% 29.96 in 0.2 mi SSE 5.8 mph - N/A Fog Fog
5:35 AM 56.7 °F 56.5 °F 99% 29.95 in 0.5 mi SSE 5.8 mph - N/A Fog Fog
5:55 AM 57.2 °F 57.2 °F 100% 29.95 in 0.5 mi South 9.2 mph - N/A Fog Fog
6:15 AM 57.6 °F 57.4 °F 99% 29.95 in 0.5 mi South 9.2 mph - N/A Fog Fog
6:35 AM 58.1 °F 57.7 °F 99% 29.95 in 0.8 mi SSE 10.4 mph - N/A   Overcast
6:55 AM 58.1 °F 58.1 °F 100% 29.95 in 1.0 mi South 9.2 mph - N/A   Overcast
7:15 AM 58.5 °F 58.3 °F 99% 29.94 in 1.0 mi SSE 6.9 mph 17.3 mph N/A   Overcast
7:35 AM 59.0 °F 58.6 °F 99% 29.94 in 1.2 mi South 12.7 mph 16.1 mph N/A   Overcast
7:55 AM 59.0 °F 58.6 °F 99% 29.94 in 1.5 mi SSE 9.2 mph 17.3 mph N/A   Overcast
8:15 AM 59.2 °F 59.0 °F 99% 29.94 in 1.5 mi South 9.2 mph - N/A   Overcast
8:35 AM 59.4 °F 59.2 °F 99% 29.94 in 2.0 mi SSE 11.5 mph 17.3 mph N/A   Overcast
8:55 AM 59.0 °F 59.0 °F 100% 29.94 in 2.5 mi South 11.5 mph - N/A   Overcast
9:15 AM 60.1 °F 59.5 °F 98% 29.94 in 3.0 mi SSE 6.9 mph - N/A   Overcast
9:35 AM 60.8 °F 59.9 °F 97% 29.93 in 3.0 mi South 9.2 mph - N/A   Overcast
9:55 AM 61.3 °F 60.3 °F 96% 29.92 in 4.0 mi SSE 9.2 mph 16.1 mph N/A   Mostly Cloudy
10:15 AM 62.6 °F 59.7 °F 90% 29.92 in 5.0 mi South 12.7 mph 19.6 mph N/A   Mostly Cloudy
10:35 AM 63.1 °F 59.7 °F 89% 29.91 in 5.0 mi SSE 10.4 mph 17.3 mph N/A   Scattered Clouds
10:55 AM 64.4 °F 59.9 °F 85% 29.90 in 5.0 mi South 12.7 mph 18.4 mph N/A   Scattered Clouds
11:15 AM 66.2 °F 60.8 °F 83% 29.88 in 7.0 mi South 11.5 mph 17.3 mph N/A   Scattered Clouds
11:35 AM 66.7 °F 59.9 °F 79% 29.87 in 10.0 mi South 11.5 mph 18.4 mph N/A   Scattered Clouds
11:55 AM 67.6 °F 60.1 °F 77% 29.85 in 10.0 mi South 13.8 mph 21.9 mph N/A   Scattered Clouds
12:15 PM 67.6 °F 59.9 °F 76% 29.84 in 10.0 mi South 15.0 mph 21.9 mph N/A   Clear
12:35 PM 69.1 °F 60.3 °F 73% 29.84 in 10.0 mi South 11.5 mph 20.7 mph N/A   Clear
12:55 PM 69.4 °F 59.9 °F 72% 29.83 in 10.0 mi South 17.3 mph 25.3 mph N/A   Scattered Clouds
1:15 PM 69.8 °F 59.9 °F 71% 29.82 in 10.0 mi South 13.8 mph 23.0 mph N/A   Scattered Clouds
1:35 PM 70.7 °F 59.9 °F 69% 29.81 in 10.0 mi South 19.6 mph 27.6 mph N/A   Scattered Clouds
1:55 PM 70.2 °F 59.5 °F 69% 29.81 in 10.0 mi South 13.8 mph 26.5 mph N/A   Scattered Clouds
2:15 PM 70.0 °F 59.0 °F 68% 29.80 in 10.0 mi South 21.9 mph 29.9 mph N/A   Scattered Clouds
2:35 PM 70.0 °F 59.0 °F 68% 29.79 in 10.0 mi South 15.0 mph 23.0 mph N/A   Clear
2:55 PM 70.2 °F 58.5 °F 66% 29.78 in 10.0 mi SSE 12.7 mph 21.9 mph N/A   Clear
3:15 PM 69.8 °F 58.3 °F 67% 29.78 in 10.0 mi South 13.8 mph 23.0 mph N/A   Clear
3:35 PM 69.1 °F 57.7 °F 67% 29.78 in 10.0 mi South 13.8 mph 25.3 mph N/A   Clear
3:55 PM 69.1 °F 57.0 °F 65% 29.81 in 10.0 mi South 13.8 mph 23.0 mph N/A   Scattered Clouds
4:15 PM 69.8 °F 56.5 °F 63% 29.81 in 10.0 mi SSW 18.4 mph 34.5 mph N/A   Mostly Cloudy
4:35 PM 69.4 °F 56.3 °F 63% 29.82 in 10.0 mi South 12.7 mph 24.2 mph N/A   Overcast
4:55 PM 68.9 °F 56.3 °F 64% 29.83 in 10.0 mi South 11.5 mph 19.6 mph N/A   Overcast
5:15 PM 68.5 °F 55.9 °F 64% 29.81 in 10.0 mi South 15.0 mph 23.0 mph N/A   Mostly Cloudy
5:35 PM 67.6 °F 54.9 °F 64% 29.82 in 10.0 mi South 18.4 mph 28.8 mph N/A   Scattered Clouds
5:55 PM 66.2 °F 54.9 °F 67% 29.82 in 10.0 mi South 20.7 mph 31.1 mph N/A   Scattered Clouds
6:15 PM 65.5 °F 54.9 °F 68% 29.83 in 10.0 mi South 13.8 mph 27.6 mph N/A   Clear
6:35 PM 65.1 °F 55.0 °F 70% 29.83 in 10.0 mi South 17.3 mph 27.6 mph N/A   Clear
6:55 PM 64.4 °F 55.4 °F 73% 29.83 in 10.0 mi South 12.7 mph 29.9 mph N/A   Clear
7:15 PM 64.0 °F 55.4 °F 73% 29.83 in 10.0 mi South 23.0 mph 34.5 mph N/A   Clear
7:35 PM 63.5 °F 55.4 °F 75% 29.83 in 10.0 mi South 19.6 mph 29.9 mph N/A   Scattered Clouds
7:55 PM 63.1 °F 55.4 °F 76% 29.83 in 10.0 mi South 19.6 mph 31.1 mph N/A   Scattered Clouds
8:15 PM 62.8 °F 55.4 °F 77% 29.83 in 10.0 mi South 18.4 mph 28.8 mph N/A   Mostly Cloudy
8:35 PM 62.6 °F 55.4 °F 77% 29.84 in 10.0 mi South 17.3 mph 26.5 mph N/A   Overcast
8:55 PM 62.8 °F 55.4 °F 77% 29.84 in 10.0 mi South 16.1 mph 29.9 mph N/A   Mostly Cloudy
9:15 PM 63.0 °F 55.4 °F 76% 29.84 in 10.0 mi South 18.4 mph 25.3 mph N/A   Mostly Cloudy
9:35 PM 63.0 °F 55.6 °F 77% 29.85 in 10.0 mi South 13.8 mph 23.0 mph N/A   Mostly Cloudy
9:55 PM 62.8 °F 55.6 °F 77% 29.85 in 10.0 mi South 15.0 mph 24.2 mph N/A   Scattered Clouds
10:15 PM 62.6 °F 55.6 °F 78% 29.86 in 10.0 mi South 11.5 mph 24.2 mph N/A   Scattered Clouds
10:35 PM 63.1 °F 55.9 °F 77% 29.87 in 10.0 mi SSW 13.8 mph 24.2 mph N/A Rain Light Rain
10:55 PM 62.6 °F 55.9 °F 79% 29.89 in 10.0 mi SSW 12.7 mph - N/A   Overcast
11:15 PM 61.2 °F 57.0 °F 86% 29.89 in 7.0 mi SW 9.2 mph 16.1 mph N/A   Light Drizzle
11:35 PM 60.6 °F 56.1 °F 85% 29.89 in 10.0 mi SSW 5.8 mph - N/A   Overcast
11:55 PM 60.1 °F 54.7 °F 82% 29.90 in 10.0 mi WSW 9.2 mph - N/A   Overcast